Temp
24 22 22 22 22 23 23 23 23 23 23 23 23 22 22 21 19 20 20 19 20 19 19 19 18 17 17 15 15 15 14 14 15 12 11 10 10 10 9 9 9 9 9
21 23 23 23 22 22 22 22 22 23 22 22 22 22 23 22 22 19 19 19 19 19 19 19 18 16 17 17 15 15 13 13 13 10 10 10 10 9 9 9 8 9 9
21 21 22 22 22 23 22 22 22 22 22 22 22 22 22 22 22 22 21 19 18 20 19 19 18 17 17 17 16 14 14 13 13 11 10 9 9 9 9 9 9 9 9
19 20 19 20 20 21 22 22 22 21 20 20 20 21 21 22 22 22 20 19 18 20 19 19 18 17 17 17 15 14 13 13 12 12 11 10 10 10 10 11 12 11 10
19 20 20 20 19 19 20 20 20 20 20 20 19 19 19 19 20 20 20 19 18 19 19 19 18 18 17 17 15 15 13 13 13 13 11 11 11 11 10 11 12 10 10
19 19 20 20 19 19 21 22 21 21 23 22 23 22 19 20 20 20 20 19 19 19 19 19 19 18 17 17 17 15 14 12 12 13 12 11 10 11 10 10 11 10 10
20 20 20 21 19 18 20 21 22 21 22 22 21 22 21 19 20 21 21 20 19 19 19 19 18 18 17 17 17 15 15 14 12 11 11 11 10 10 10 10 10 10 10
20 21 19 21 18 18 18 19 20 21 22 22 20 19 21 20 22 22 22 20 20 18 17 18 17 18 17 17 16 13 13 12 11 11 10 9 9 9 9 10 10 10 10
17 19 17 16 17 17 18 19 18 20 20 21 20 21 21 21 21 21 21 20 22 17 17 16 17 18 17 16 16 15 14 13 13 12 11 10 11 11 9 11 11 11 11
17 15 17 16 16 17 18 18 19 19 18 18 18 19 18 20 21 21 19 19 21 19 16 16 15 17 17 16 16 14 12 11 12 12 11 10 10 11 11 9 11 12 11
17 17 15 15 16 17 17 18 18 18 18 19 17 18 18 21 21 19 18 18 21 18 18 18 15 16 16 16 15 12 13 12 12 10 9 9 9 9 9 9 9 11 11
16 16 15 16 16 16 17 18 18 19 19 19 18 18 18 22 20 18 16 18 16 17 19 17 15 15 16 15 15 14 13 13 11 11 11 11 10 10 9 9 11 10 11
15 16 16 16 16 16 16 17 17 18 19 18 19 18 19 20 20 19 17 18 19 19 18 16 16 16 16 14 15 14 13 12 12 12 12 11 10 9 10 9 11 11 11
15 15 15 14 15 15 16 16 17 17 17 18 18 17 18 20 22 21 19 19 19 19 17 16 16 15 15 14 14 13 12 12 12 13 12 10 10 9 9 10 10 10 10
12 14 14 13 13 15 15 16 16 16 16 17 16 16 17 19 20 21 21 20 20 19 18 17 16 15 14 13 12 13 12 12 12 12 11 10 10 10 10 10 10 11 11
12 13 12 13 13 14 15 15 15 16 16 16 16 16 17 18 18 20 20 20 20 19 17 17 16 16 15 13 12 12 12 12 12 11 11 11 11 11 10 10 10 11 11
11 12 12 12 12 13 14 14 15 15 15 15 16 16 16 17 17 18 18 18 18 17 17 17 16 16 15 14 14 13 13 13 12 11 11 11 11 11 10 10 10 11 11
11 11 11 12 12 11 11 13 13 14 14 14 15 15 16 16 17 17 17 17 16 16 17 17 17 17 16 15 14 14 13 13 11 11 13 12 11 10 11 11 11 11 11
10 11 12 11 11 11 11 12 13 13 14 13 14 14 15 16 16 16 16 16 16 15 16 16 16 16 15 15 13 13 13 12 11 14 12 11 11 12 12 12 11 11 11
10 10 11 10 10 10 10 12 12 12 13 13 13 13 14 14 14 14 14 14 14 14 14 14 15 15 15 15 14 13 12 12 13 13 11 12 11 11 11 11 12 10 10
9 9 11 9 8 10 11 11 11 12 12 13 13 13 13 14 13 13 14 14 14 14 14 14 14 14 14 14 14 13 12 12 11 12 11 10 12 11 11 10 12 11 11
9 9 8 9 10 8 10 11 11 11 11 12 12 12 13 13 13 13 13 13 13 13 13 13 14 14 14 14 13 14 13 12 11 11 11 12 12 12 10 10 11 12 12
8 7 6 7 8 8 9 8 9 10 10 10 11 12 11 12 12 12 13 13 13 13 13 13 13 13 14 14 13 13 13 13 12 12 12 12 11 11 11 11 11 11 11
6 5 5 6 5 6 6 7 8 8 9 9 10 10 10 11 12 12 12 13 13 13 13 13 14 13 13 14 14 14 13 13 12 11 11 11 11 11 11 11 10 10 10
5 6 6 5 5 5 6 6 6 7 7 8 8 9 9 10 11 11 12 12 12 13 13 13 14 14 14 14 14 13 13 13 13 12 11 11 11 11 11 11 11 11 11
5 5 5 4 3 3 4 4 4 5 6 6 6 8 8 8 9 10 11 11 12 12 12 13 13 13 14 14 13 13 13 13 13 12 11 10 11 11 11 11 11 11 12
Height
1543 1546 1547 1548 1549 1550 1552 1552 1552 1553 1552 1552 1552 1551 1551 1552 1553 1551 1551 1552 1549 1548 1547 1543 1541 1539 1536 1535 1534 1531 1529 1527 1524 1522 1523 1523 1525 1525 1525 1524 1524 1522 1521
1540 1541 1543 1544 1546 1547 1548 1549 1550 1549 1549 1548 1548 1547 1546 1547 1547 1548 1548 1549 1547 1546 1544 1541 1540 1537 1535 1532 1533 1528 1527 1525 1523 1521 1523 1523 1523 1523 1523 1522 1521 1522 1519
1535 1537 1540 1541 1543 1544 1545 1546 1546 1546 1546 1545 1545 1543 1543 1543 1543 1543 1544 1545 1544 1542 1540 1541 1539 1537 1535 1532 1530 1529 1527 1524 1524 1522 1523 1523 1524 1525 1524 1523 1521 1520 1518
1529 1533 1536 1539 1540 1541 1542 1542 1542 1542 1541 1542 1542 1540 1540 1539 1539 1539 1539 1539 1540 1539 1537 1537 1537 1535 1534 1532 1530 1526 1524 1524 1522 1523 1523 1523 1525 1524 1524 1524 1524 1523 1518
1526 1526 1529 1535 1538 1539 1539 1539 1539 1539 1539 1538 1537 1538 1537 1536 1536 1536 1536 1536 1537 1536 1534 1533 1534 1533 1533 1531 1531 1528 1524 1523 1523 1523 1523 1524 1525 1526 1525 1524 1524 1519 1517
1524 1521 1521 1529 1534 1535 1535 1534 1535 1536 1533 1531 1530 1530 1531 1532 1532 1530 1531 1532 1533 1532 1530 1530 1530 1531 1532 1532 1530 1529 1525 1522 1522 1523 1523 1524 1523 1525 1525 1524 1523 1521 1518
1520 1519 1520 1520 1530 1533 1531 1529 1529 1530 1527 1524 1524 1523 1524 1527 1525 1525 1524 1526 1530 1530 1530 1528 1528 1529 1531 1531 1529 1527 1525 1522 1520 1521 1523 1524 1525 1524 1524 1524 1522 1520 1519
1517 1514 1518 1521 1524 1529 1529 1527 1524 1524 1523 1521 1518 1519 1519 1518 1519 1519 1518 1523 1518 1527 1530 1528 1528 1528 1529 1530 1529 1529 1525 1523 1521 1523 1521 1521 1524 1525 1524 1524 1524 1523 1521
1514 1515 1516 1522 1521 1526 1525 1520 1521 1520 1520 1516 1514 1514 1516 1514 1514 1512 1513 1514 1514 1517 1528 1527 1525 1526 1528 1530 1530 1528 1526 1523 1521 1521 1520 1521 1521 1522 1524 1528 1528 1525 1525
1513 1515 1514 1519 1525 1521 1519 1516 1516 1516 1513 1511 1510 1509 1511 1509 1509 1507 1508 1508 1507 1511 1521 1527 1527 1525 1526 1529 1530 1529 1527 1524 1522 1521 1522 1523 1524 1524 1525 1528 1530 1529 1528
1515 1515 1514 1517 1520 1516 1514 1511 1510 1509 1507 1506 1506 1507 1508 1505 1500 1496 1494 1495 1496 1497 1511 1517 1521 1522 1524 1527 1530 1529 1528 1525 1521 1524 1521 1523 1526 1528 1530 1529 1529 1531 1530
1515 1516 1516 1515 1514 1510 1506 1506 1504 1502 1503 1504 1505 1506 1507 1499 1493 1491 1494 1494 1492 1494 1504 1510 1515 1519 1522 1524 1527 1527 1528 1526 1528 1525 1528 1526 1526 1527 1528 1530 1528 1529 1530
1516 1516 1514 1511 1509 1506 1503 1503 1503 1499 1501 1503 1503 1503 1503 1499 1496 1492 1494 1494 1491 1494 1501 1506 1511 1516 1519 1521 1524 1526 1525 1528 1529 1527 1526 1528 1528 1527 1525 1528 1531 1531 1533
1511 1511 1510 1510 1507 1503 1500 1500 1500 1498 1498 1499 1499 1498 1499 1498 1496 1495 1494 1494 1494 1495 1498 1502 1508 1514 1516 1518 1520 1523 1525 1528 1530 1528 1526 1523 1523 1526 1530 1532 1534 1536 1538
1510 1508 1506 1505 1502 1499 1498 1498 1498 1495 1495 1494 1494 1495 1494 1492 1493 1492 1493 1493 1493 1495 1497 1500 1503 1507 1512 1514 1517 1520 1523 1523 1526 1526 1526 1525 1525 1528 1530 1534 1536 1539 1539
1510 1508 1505 1502 1501 1499 1496 1495 1494 1494 1492 1491 1491 1492 1490 1488 1488 1487 1486 1488 1491 1492 1495 1498 1500 1503 1507 1511 1514 1517 1520 1521 1523 1522 1524 1526 1527 1527 1529 1531 1535 1539 1541
1508 1507 1506 1505 1500 1497 1496 1494 1492 1490 1488 1488 1489 1489 1488 1489 1486 1484 1483 1485 1486 1489 1492 1495 1497 1500 1503 1507 1510 1513 1517 1517 1519 1519 1519 1524 1527 1530 1529 1530 1531 1537 1541
1510 1508 1507 1504 1502 1499 1495 1491 1489 1487 1487 1487 1486 1486 1485 1484 1482 1482 1481 1481 1483 1484 1487 1491 1493 1495 1497 1501 1506 1508 1510 1513 1513 1516 1517 1520 1525 1525 1532 1532 1530 1532 1539
1508 1507 1503 1503 1502 1497 1493 1489 1487 1486 1485 1484 1483 1483 1483 1482 1480 1479 1479 1479 1480 1482 1484 1486 1489 1490 1492 1494 1496 1499 1504 1505 1508 1512 1515 1517 1521 1526 1529 1531 1533 1531 1534
1506 1502 1500 1499 1498 1495 1491 1488 1486 1484 1482 1481 1481 1480 1481 1481 1478 1479 1478 1478 1479 1480 1481 1482 1485 1486 1488 1489 1490 1493 1496 1499 1503 1506 1511 1515 1519 1522 1525 1529 1531 1532 1532
1503 1501 1497 1495 1493 1489 1486 1484 1482 1480 1477 1478 1476 1475 1477 1476 1476 1476 1475 1474 1474 1475 1476 1477 1480 1481 1483 1483 1487 1488 1489 1494 1498 1500 1505 1512 1515 1518 1522 1526 1528 1531 1533
1501 1498 1494 1490 1487 1485 1482 1480 1478 1475 1474 1473 1473 1473 1472 1471 1473 1473 1473 1473 1472 1473 1475 1476 1475 1477 1479 1482 1483 1484 1485 1489 1492 1497 1501 1507 1511 1515 1519 1524 1527 1530 1532
1499 1495 1490 1484 1481 1479 1477 1476 1474 1472 1470 1469 1468 1468 1467 1469 1470 1470 1471 1471 1472 1472 1473 1474 1474 1476 1478 1480 1480 1481 1483 1485 1489 1493 1497 1502 1507 1512 1516 1520 1523 1525 1529
1495 1490 1485 1480 1477 1475 1472 1471 1469 1468 1466 1464 1464 1464 1464 1465 1465 1466 1468 1468 1470 1471 1472 1471 1472 1475 1476 1478 1478 1480 1481 1483 1485 1489 1493 1497 1503 1507 1512 1516 1520 1523 1527
1492 1487 1482 1477 1474 1471 1469 1467 1465 1463 1462 1460 1461 1460 1461 1461 1463 1465 1466 1466 1467 1468 1469 1470 1472 1473 1475 1475 1476 1477 1479 1481 1483 1485 1488 1492 1497 1502 1507 1511 1516 1520 1523
1491 1486 1480 1476 1472 1469 1467 1465 1463 1460 1459 1457 1457 1457 1459 1460 1462 1463 1462 1463 1464 1466 1469 1469 1469 1470 1471 1471 1472 1474 1476 1479 1480 1481 1483 1487 1491 1497 1502 1507 1512 1517 1519
Wind_Speed
20 16 16 14 13 14 15 14 15 15 15 15 15 16 17 16 14 16 16 13 16 15 14 14 14 14 13 8 8 8 5 4 4 2 5 4 2 2 2 5 4 5 7
16 20 18 17 15 14 15 15 16 16 16 17 16 17 18 18 19 18 16 13 15 14 16 13 13 11 14 13 7 8 3 2 3 2 3 4 1 1 3 4 2 1 1
15 16 19 19 19 18 19 20 20 21 21 20 20 19 19 19 18 17 16 15 15 14 14 15 11 13 12 9 6 3 4 2 2 2 3 3 2 1 3 5 4 4 6
7 11 13 15 16 20 21 23 24 24 22 21 21 24 21 20 19 18 16 14 15 15 15 15 12 12 11 11 5 5 2 3 3 3 4 4 3 1 2 3 3 3 7
5 5 3 7 11 14 14 15 16 16 17 18 19 21 21 19 18 18 16 14 14 15 16 14 11 12 11 8 3 5 2 3 4 4 5 4 3 2 2 3 3 5 6
5 4 2 7 13 13 9 10 15 19 18 16 21 23 20 19 18 20 16 16 15 15 18 15 12 14 9 6 6 5 3 4 6 5 3 5 5 2 2 2 2 3 5
2 1 8 14 17 17 19 20 22 23 15 22 19 21 21 18 22 22 17 13 12 17 19 16 11 13 8 6 5 4 3 4 7 7 7 6 5 4 3 4 6 8 10
8 0 6 9 20 22 19 21 25 25 24 28 23 21 18 21 20 23 22 11 13 18 18 16 12 12 9 6 3 1 4 6 9 6 8 8 6 3 5 6 7 7 10
7 2 3 8 14 18 19 20 19 19 16 17 22 19 19 21 21 23 24 17 19 19 18 16 16 13 10 7 4 2 3 5 8 7 7 9 10 8 10 5 2 4 5
6 7 2 2 10 10 12 15 17 20 17 12 15 17 12 16 21 27 29 24 20 22 20 32 21 15 10 9 6 4 5 6 8 9 9 7 7 9 9 10 4 2 5
7 7 6 5 7 7 10 9 14 13 14 11 12 16 12 20 21 24 26 31 27 36 39 36 29 19 13 12 8 7 5 7 10 10 10 9 6 4 4 3 5 6 5
10 9 7 7 9 9 10 10 9 9 13 11 7 8 8 16 10 8 9 15 15 20 20 25 23 20 16 15 12 8 5 7 7 9 7 7 6 8 4 3 4 5 8
7 6 8 10 11 12 11 12 9 5 9 12 12 11 5 9 6 8 6 3 8 17 25 21 23 20 19 19 15 11 8 8 7 7 8 6 5 5 6 6 7 8 11
11 8 6 7 10 12 12 11 12 10 7 7 10 10 11 14 15 18 9 8 9 13 16 20 20 22 22 21 19 16 10 9 6 6 8 8 8 7 5 6 6 8 7
11 12 10 9 11 12 14 13 12 12 11 10 10 9 12 13 15 14 13 15 16 18 18 21 22 27 27 22 20 19 13 12 9 8 8 8 10 9 8 7 7 8 8
12 12 12 11 10 12 14 16 13 11 11 12 11 10 10 11 11 13 16 15 17 20 20 23 25 28 28 22 19 18 17 15 13 12 9 10 9 10 9 10 8 8 9
12 12 12 11 14 12 14 16 16 13 12 14 12 12 10 12 12 11 11 14 18 21 23 24 25 26 24 21 20 20 20 16 17 14 15 10 9 9 11 10 11 10 10
10 14 11 12 12 12 13 15 16 15 13 11 13 14 11 12 12 12 12 14 14 21 23 25 25 25 26 25 22 21 19 20 19 18 15 12 12 11 9 9 11 13 11
10 9 13 11 11 15 12 15 15 14 14 11 13 9 13 12 7 9 14 14 15 17 20 21 23 24 25 27 29 26 25 26 23 22 19 16 13 11 11 10 10 13 15
11 16 18 13 13 13 13 15 14 13 12 14 13 10 10 7 5 5 9 13 14 14 15 15 15 17 18 18 23 28 28 27 23 26 22 19 15 19 15 12 11 10 13
12 13 17 15 13 15 15 17 14 15 12 16 12 10 9 10 9 6 6 9 10 11 11 12 10 10 11 14 16 20 24 26 27 28 24 20 21 18 17 16 12 11 11
13 14 16 18 19 16 16 15 16 15 15 14 14 13 13 14 12 11 9 8 8 10 10 10 9 8 9 10 11 14 18 23 26 26 27 27 22 21 19 18 14 12 12
14 15 16 19 19 19 17 15 15 15 15 15 16 16 14 15 14 13 12 11 10 9 9 9 9 9 8 8 8 9 10 15 20 25 25 27 27 25 23 21 20 19 15
13 13 15 18 18 17 16 16 16 15 15 14 15 15 14 14 13 12 12 11 10 10 11 9 9 9 8 9 9 9 11 12 16 22 27 28 29 26 25 25 21 16 14
15 18 18 16 14 14 14 14 15 13 13 13 12 12 13 12 12 11 12 11 10 9 8 9 10 10 10 10 10 11 11 11 13 16 21 26 28 29 29 26 23 19 16
19 22 19 17 14 11 9 9 10 10 10 9 9 8 10 10 10 10 9 9 8 8 9 10 10 11 12 13 14 13 14 15 15 15 19 25 30 31 27 27 23 22 19
Wind_Direction
228 229 241 244 245 249 253 256 258 261 262 265 268 270 272 268 267 270 278 279 292 307 313 312 316 324 329 333 328 328 335 311 306 252 264 204 329 347 306 336 334 36 322
226 229 237 245 244 248 254 258 262 264 266 268 269 275 278 275 273 261 266 264 279 298 307 306 310 317 331 347 344 344 345 352 286 179 193 238 269 229 348 2 11 339 245
221 229 239 248 258 262 265 270 272 273 273 272 271 272 277 278 278 272 267 266 271 288 297 298 299 309 326 331 350 350 1 32 31 133 163 189 155 140 358 347 11 357 360
203 222 242 252 260 266 270 272 272 273 273 272 270 270 269 271 272 275 267 266 264 285 289 291 296 297 316 335 332 350 5 86 109 98 138 141 150 44 31 14 11 3 331
133 144 208 284 277 272 268 274 277 275 274 272 272 267 266 263 262 270 267 265 263 277 279 280 280 284 306 334 333 303 36 126 135 128 142 143 139 122 10 351 346 268 350
198 168 40 323 308 292 268 294 294 289 280 292 283 273 258 257 258 260 265 273 270 276 275 269 274 279 291 318 326 342 331 121 150 142 151 162 161 109 34 65 335 348 5
298 284 269 270 286 280 286 271 260 265 284 268 274 269 259 257 253 258 250 249 267 279 271 268 258 267 276 298 315 353 35 96 129 131 144 148 144 142 121 90 109 82 50
18 44 270 332 276 277 272 268 265 266 262 273 275 259 254 255 264 264 257 227 299 276 274 267 225 262 262 277 305 25 72 97 104 112 134 141 141 117 128 123 111 70 38
51 41 206 249 256 265 273 271 266 267 269 271 267 264 250 255 265 269 266 217 291 302 294 255 242 248 252 251 249 173 113 128 124 119 138 137 142 142 132 105 91 341 36
13 22 69 302 278 285 296 292 276 257 269 261 264 253 248 276 290 285 253 237 272 262 259 301 250 244 235 233 225 175 147 140 126 116 113 126 130 141 141 117 84 80 22
1 355 4 321 306 304 299 309 293 265 262 269 256 263 282 299 306 311 266 244 257 262 257 273 250 227 221 217 211 187 171 149 129 130 125 123 120 111 97 98 107 105 82
10 345 336 322 331 331 326 324 314 270 277 279 253 248 302 325 332 353 235 277 255 236 240 246 238 221 218 206 199 199 176 136 144 136 138 137 145 139 144 142 137 126 148
7 346 332 328 320 322 321 322 330 312 286 270 265 251 245 81 55 76 197 303 188 198 209 219 235 213 210 203 200 194 179 148 167 149 146 146 150 165 152 137 121 123 130
360 350 337 338 326 315 320 317 309 310 301 290 288 271 255 228 243 283 275 215 208 199 197 212 213 207 203 209 199 197 178 182 178 168 155 157 148 142 140 149 136 129 131
4 0 350 340 331 325 316 314 305 299 301 301 287 292 279 259 240 246 249 231 222 215 208 207 197 196 202 208 204 203 192 195 178 171 163 154 145 150 152 151 160 149 145
14 3 349 341 324 314 313 308 308 292 288 290 297 291 280 276 270 250 247 224 219 216 211 214 204 206 208 203 203 204 199 198 192 178 167 168 163 159 163 157 159 169 166
2 353 354 346 326 315 310 312 298 294 290 292 284 290 286 280 267 262 256 235 220 215 217 217 218 214 207 205 207 206 203 199 199 185 179 167 169 175 169 167 162 173 179
350 344 347 336 331 321 311 314 315 301 296 293 279 284 292 293 277 253 243 236 214 206 212 219 224 225 221 211 208 208 200 203 193 198 190 165 179 171 179 181 170 163 179
340 330 331 329 320 318 310 304 307 302 294 271 265 274 286 296 282 240 226 226 227 219 218 222 227 232 235 227 209 204 200 205 196 200 189 185 176 176 181 189 185 166 173
334 325 326 324 314 314 307 298 298 293 298 288 269 254 267 286 286 227 205 207 204 205 209 218 230 234 237 236 233 226 220 224 212 204 206 202 188 184 183 180 189 182 168
330 321 316 315 308 306 303 297 295 291 283 288 292 269 253 256 239 215 197 194 192 194 196 201 210 223 230 232 230 226 225 224 214 216 202 198 202 192 182 175 183 184 178
327 318 310 304 302 299 294 291 291 288 284 274 270 272 249 230 230 218 216 214 203 199 199 202 201 207 213 222 226 222 224 224 218 213 205 206 205 201 193 177 176 186 189
328 322 310 305 296 291 291 289 288 285 279 277 266 263 250 234 234 232 226 224 219 210 199 194 190 196 207 218 211 215 219 219 217 214 212 206 207 207 201 196 187 183 182
345 337 321 307 300 297 294 291 289 282 274 271 267 256 246 231 235 232 228 224 223 220 215 209 209 212 208 218 210 213 209 218 218 219 213 212 210 211 209 207 202 192 178
3 356 348 333 320 304 292 288 285 276 268 260 260 245 239 228 224 222 225 219 211 211 213 216 216 220 224 225 228 225 223 222 228 224 212 209 209 216 215 213 206 198 185
15 8 360 353 344 331 310 296 286 278 263 244 236 225 219 211 206 202 193 200 196 211 222 225 224 228 232 231 230 230 230 229 233 223 214 206 209 214 220 214 209 197 200